Flag for Switzerland Weather past 2 weeks in Riehen, Basel-Stadt, Switzerland

50 °F

Mostly cloudy.

Feels Like: 44 °F
Forecast: 42 / 52 °F
Wind: 16 mph from Southwest

Location: Bale-Mulhouse

Current Time: Nov 30, 2015 at 1:14:54 AM

Latest Report: Nov 30, 2015 at 12:30 AM

Visibility: N/A

Pressure: 30.30 "Hg

Humidity: 76%

Dew point: 43 °F

Location of RiehenLocation

Historic Weather in Riehen — Graph


Riehen temperature yesterday

Maximum temperature yesterday: 50 °F (at 5:30 PM)
Minimum temperature yesterday: 39 °F (at 12:00 AM)
Average temperature yesterday: 46 °F

Past Weeks' High & Low Weather Summary

High66 °F (Nov 15, 2:30 PM)100% (Nov 16, 2:00 AM)30.36 "Hg (Nov 16, 2:00 AM)
Low23 °F (Nov 24, 5:30 AM)42% (Nov 16, 1:00 PM)29.45 "Hg (Nov 21, 12:30 PM)
Average44 °F81%30.03 "Hg
* Reported Nov 14 11:00 PM — Nov 29 11:30 PM, Riehen, Weather by CustomWeather, © 2015

Note: Actual official high and low records may vary slightly from our data, if they occured in-between our weather recording intervals... More about our weather records


Riehen weather history for previous 24 hours

Time TempWeatherWind HumidityBarometerVisibility
11:30 PM
Sun, Nov 29
50 °FPassing clouds.21 mph76%30.27 "HgN/A
11:00 PM50 °FPartly cloudy.16 mph76%30.27 "HgN/A
10:30 PM50 °FPartly cloudy.16 mph76%30.30 "HgN/A
9:30 PM50 °FSprinkles. Passing clouds.16 mph76%30.30 "HgN/A
9:00 PM50 °FSprinkles. Partly cloudy.17 mph76%30.27 "HgN/A
8:30 PM50 °FLight rain. Passing clouds.14 mph76%30.27 "HgN/A
8:00 PM50 °FPassing clouds.17 mph76%30.27 "HgN/A
7:30 PM50 °FPartly cloudy.14 mph71%30.27 "HgN/A
7:00 PM50 °FPartly cloudy.10 mph76%30.27 "HgN/A
6:30 PM50 °FSprinkles. Partly cloudy.13 mph76%30.27 "HgN/A
6:00 PM48 °FPartly cloudy.10 mph82%30.27 "HgN/A
5:30 PM50 °FPartly cloudy.13 mph71%30.27 "HgN/A
5:00 PM48 °FPartly cloudy.12 mph82%30.24 "HgN/A
4:30 PM48 °FPartly sunny.16 mph82%30.24 "HgN/A
4:00 PM48 °FPartly sunny.15 mph76%30.24 "HgN/A
3:30 PM48 °FPartly sunny.17 mph76%30.21 "HgN/A
3:00 PM48 °FPartly sunny.20 mph76%30.21 "HgN/A
2:30 PM48 °FPartly sunny.21 mph76%30.21 "HgN/A
2:00 PM48 °FPartly sunny.20 mph76%30.21 "HgN/A
1:30 PM48 °FPartly sunny.16 mph76%30.21 "HgN/A
1:00 PM48 °FLight rain. Broken clouds.18 mph76%30.21 "HgN/A
12:30 PM46 °FLight rain. Broken clouds.17 mph82%30.21 "HgN/A
12:00 PM46 °FLight rain. Mostly cloudy.18 mph82%30.21 "HgN/A
11:30 AM46 °FLight rain. Mostly cloudy.17 mph82%30.21 "HgN/A
10:30 AM46 °FLight rain. Cloudy.13 mph76%30.21 "HgN/A
10:00 AM45 °FLight rain. Cloudy.10 mph81%30.21 "HgN/A
9:30 AM45 °FLight rain. More clouds than sun.8 mph81%30.21 "HgN/A
9:00 AM45 °FLight rain. Mostly cloudy.8 mph81%30.21 "HgN/A
7:30 AM43 °FLight rain. Passing clouds.6 mph81%30.18 "HgN/A
7:00 AM41 °FLight rain. Passing clouds.5 mph76%30.18 "HgN/A
6:00 AM41 °FMostly cloudy.7 mph70%30.18 "HgN/A
5:30 AM41 °FPartly cloudy.5 mph70%30.21 "HgN/A
5:00 AM39 °FPartly cloudy.No wind70%30.21 "HgN/A
4:30 AM39 °FPassing clouds.2 mph70%30.21 "HgN/A
4:00 AM41 °FMostly cloudy.5 mph66%30.21 "HgN/A
3:30 AM41 °FPassing clouds.9 mph66%30.21 "HgN/A
3:00 AM39 °FPassing clouds.5 mph70%30.24 "HgN/A
2:30 AM39 °FPassing clouds.6 mph70%30.24 "HgN/A
2:00 AM39 °FPassing clouds.5 mph75%30.24 "HgN/A
1:30 AM39 °FPassing clouds.5 mph75%30.24 "HgN/A
Weather by CustomWeather, © 2015

See weather overviewHow to use our weather pages